Regional Weather Roundup
Issued by NWS Jackson, KY

Home | Current Version | Previous Version | Text Only | Print | Product List | Glossary Off
Versions: 1 2 3 4 5 6 7 8 9 10 11 12 13 14 15 16 17 18 19 20 21 22 23 24 25 26 27 28 29 30 31 32 33 34 35 36 37 38 39 40 41 42 43 44 45 46 47 48 49 50

000
ASUS43 KJKL 041610
RWRJKL

EAST KENTUCKY HOURLY WEATHER ROUNDUP
NATIONAL WEATHER SERVICE JACKSON KY
1100 AM EST WED MAR 04 2015

NOTE: "FAIR" INDICATES FEW OR NO CLOUDS BELOW 12,000 FEET WITH
NO SIGNIFICANT WEATHER AND/OR OBSTRUCTIONS TO VISIBILITY.

* THESE REPORTS ARE NOT UNDER NWS QUALITY CONTROL AND MAY NOT
  REPORT WEATHER SUCH AS PRECIPITATION AND FOG.

KYZ079-080-083-085-087-088-110-112-115-119-120-041700
...EASTERN KENTUCKY...

CITY           SKY/WX    TMP DP  RH WIND       PRES   REMARKS
JACKSON        RAIN      49  48  97 SW3       29.92F FOG
LONDON         LGT RAIN  51  48  89 SE5       29.92F FOG
SOMERSET*      RAIN      48  48 100 CALM      29.94F
MONTICELLO*    FOG       52  51  96 CALM      29.95S VSB 1/2
MIDDLESBORO*   DRIZZLE   49  49 100 SW3       29.93F
HAZARD APT*    RAIN      50  50 100 S3        29.92F
BLACK MTN*       N/A     43  43 100 W1          N/A
PIKEVILLE APT* LGT RAIN  48  48 100 S8        29.91F VSB 1/4
BIG SANDY*     RAIN      50  49  97 S6        29.91F
MOREHEAD APT*  RAIN      41  41 100 NW8       29.97S
$$

KYZ035-036-041-042-044-050-067-078-099-041700
...CENTRAL KENTUCKY...

CITY           SKY/WX    TMP DP  RH WIND       PRES   REMARKS
MT STERLING*   RAIN      41  41 100 N8        29.96F
FLEMING/MASON* RAIN      36  36 100 N7        29.97S WCI  30
DANVILLE*      RAIN      41  41 100 N10       29.96S
RICHMOND*      CLOUDY    43  41  93 NW12      29.95R
LEXINGTON      LGT RAIN  40  39  97 N8        29.95F WCI  34
FRANKFORT      LGT RAIN  39  37  92 N8        29.97R FOG     WCI  33
$$

KYZ091>093-OHZ055-061-077-WVZ005-015-034-035-042-041700
...SOUTHERN OHIO/WEST VIRGINIA...

CITY           SKY/WX    TMP DP  RH WIND       PRES   REMARKS
COVINGTON      CLOUDY    36  32  85 NW7       29.99R FOG     WCI  30
COLUMBUS       CLOUDY    35  34  96 NW7       29.96R FOG     WCI  29
DAYTON         CLOUDY    35  30  82 NW8       29.98F HAZE    WCI  29
WILMINGTON     CLOUDY    34  31  88 N6        29.95F FOG     WCI  29
HUNTINGTON     RAIN      42  42 100 NW8       29.93R VSB 1/2
CHARLESTON     LGT RAIN  50  48  93 CALM      29.90S
PINEVILLE*     DRZL/FOG  42  42 100 MISG      29.98F VSB 1/4
BECKLEY        CLOUDY    45  45 100 S6        29.93F
BLUEFIELD      CLOUDY    50  45  83 CALM      29.93F
$$

VAZ002-007-008-TNZ017-027-036-066-071-041700
...SOUTHWEST VIRGINIA/EAST TENNESSEE...

CITY           SKY/WX    TMP DP  RH WIND       PRES   REMARKS
WISE*          HVY RAIN  46  46 100 E3        29.95S
JONESVILLE*    LGT RAIN  45  45 100 CALM      29.95R VSB<1/4
ABINGDON*      FOG       54  54 100 CALM      29.92S VSB 1/4
BRISTOL        CLOUDY    57  56  96 CALM      29.91F
KNOXVILLE      PTSUNNY   67  59  75 SW28G39   29.91F
OAK RIDGE      CLOUDY    64  59  83 SW9G24    29.91F
CROSSVILLE     CLOUDY    61  58  90 S7G20     29.91F
NASHVILLE      LGT RAIN  52  51  97 N3        29.94R VSB 1
$$

...KEY TO REMARKS...
VSB - VISIBILITY IN MILES
WCI - WIND CHILL INDEX
HX  - HEAT INDEX

$$


USA.gov is the U.S. government's official web portal to all federal, state and local government web resources and services.